• en France
  • Liste des pays
  • À 7 jours
  • Température de l'eau
  • Carte satellitaire
  • Carte météo
  • Widgets météo
  • user-avatar
    Se connecter

    Météo par heure à Dybowo

    Ce jour, 21 Juin, Jeudi

    Heure Température Précipitation Vent Pression Humidité
    00:00 +19°C° 0 mm 2 m/s 749 mmHg 72%
    01:00 +19°C° 0 mm 2 m/s 748 mmHg 74%
    02:00 +19°C° 0 mm 2 m/s 748 mmHg 74%
    03:00 +19°C° 0 mm 2 m/s 748 mmHg 75%
    04:00 +19°C° 0 mm 3 m/s 747 mmHg 76%
    05:00 +20°C° 0 mm 3 m/s 747 mmHg 73%
    06:00 +22°C° 0 mm 4 m/s 747 mmHg 70%
    07:00 +25°C° 0 mm 5 m/s 746 mmHg 67%
    08:00 +25°C° 0,3 mm 5 m/s 745 mmHg 65%
    09:00 +26°C° 0,3 mm 6 m/s 744 mmHg 64%
    10:00 +27°C° 0,3 mm 6 m/s 744 mmHg 62%
    11:00 +28°C° 0,5 mm 6 m/s 743 mmHg 61%
    12:00 +28°C° 0,5 mm 6 m/s 742 mmHg 59%
    13:00 +29°C° 0,5 mm 6 m/s 742 mmHg 58%
    14:00 +28°C° 0,7 mm 6 m/s 741 mmHg 62%
    15:00 +28°C° 0,7 mm 6 m/s 740 mmHg 66%
    16:00 +27°C° 0,7 mm 5 m/s 740 mmHg 70%
    17:00 +23°C° 1,4 mm 5 m/s 740 mmHg 77%
    18:00 +21°C° 1,4 mm 6 m/s 740 mmHg 84%
    19:00 +17°C° 1,4 mm 6 m/s 740 mmHg 91%
    20:00 +15°C° 0,4 mm 5 m/s 740 mmHg 92%
    21:00 +14°C° 0,4 mm 5 m/s 741 mmHg 93%
    22:00 +12°C° 0,4 mm 4 m/s 742 mmHg 93%
    23:00 +11°C° 0 mm 4 m/s 742 mmHg 94%

    Demain, 22 Juin, Vendredi

    Heure Température Précipitation Vent Pression Humidité
    00:00 +11°C° 0 mm 4 m/s 742 mmHg 94%
    01:00 +10°C° 0 mm 4 m/s 743 mmHg 94%
    02:00 +10°C° 0 mm 4 m/s 743 mmHg 93%
    03:00 +8°C° 0 mm 5 m/s 743 mmHg 92%
    04:00 +8°C° 0 mm 5 m/s 743 mmHg 91%
    05:00 +9°C° 0 mm 5 m/s 744 mmHg 85%
    06:00 +10°C° 0 mm 6 m/s 744 mmHg 79%
    07:00 +11°C° 0 mm 6 m/s 744 mmHg 73%
    08:00 +12°C° 0 mm 7 m/s 745 mmHg 67%
    09:00 +14°C° 0 mm 7 m/s 745 mmHg 61%
    10:00 +15°C° 0 mm 7 m/s 745 mmHg 55%
    11:00 +16°C° 0,2 mm 7 m/s 745 mmHg 55%
    12:00 +16°C° 0,2 mm 7 m/s 745 mmHg 54%
    13:00 +16°C° 0,2 mm 7 m/s 745 mmHg 54%
    14:00 +16°C° 0,1 mm 6 m/s 745 mmHg 54%
    15:00 +17°C° 0,1 mm 6 m/s 745 mmHg 53%
    16:00 +17°C° 0,1 mm 5 m/s 745 mmHg 53%
    17:00 +16°C° 0,2 mm 5 m/s 746 mmHg 60%
    18:00 +15°C° 0,2 mm 4 m/s 746 mmHg 67%
    19:00 +14°C° 0,2 mm 3 m/s 746 mmHg 75%
    20:00 +12°C° 0,1 mm 3 m/s 746 mmHg 80%
    21:00 +11°C° 0,1 mm 3 m/s 746 mmHg 85%
    22:00 +10°C° 0,1 mm 3 m/s 746 mmHg 91%
    23:00 +9°C° 0 mm 3 m/s 746 mmHg 92%

    Après-demain, 23 Juin, Samedi

    Heure Température Précipitation Vent Pression Humidité
    00:00 +9°C° 0 mm 3 m/s 746 mmHg 93%
    01:00 +9°C° 0 mm 3 m/s 746 mmHg 94%
    02:00 +9°C° 0 mm 3 m/s 746 mmHg 94%
    03:00 +8°C° 0 mm 3 m/s 746 mmHg 94%
    04:00 +8°C° 0 mm 3 m/s 746 mmHg 94%
    05:00 +10°C° 0,1 mm 3 m/s 746 mmHg 91%
    06:00 +11°C° 0,1 mm 4 m/s 746 mmHg 88%
    07:00 +12°C° 0,1 mm 5 m/s 746 mmHg 84%
    08:00 +13°C° 0,4 mm 5 m/s 746 mmHg 83%
    09:00 +13°C° 0,4 mm 5 m/s 746 mmHg 82%
    10:00 +14°C° 0,4 mm 5 m/s 746 mmHg 81%
    11:00 +15°C° 0,6 mm 5 m/s 745 mmHg 78%
    12:00 +15°C° 0,6 mm 5 m/s 745 mmHg 75%
    13:00 +16°C° 0,6 mm 5 m/s 745 mmHg 73%
    14:00 +16°C° 0,5 mm 5 m/s 745 mmHg 72%
    15:00 +17°C° 0,5 mm 4 m/s 745 mmHg 72%
    16:00 +17°C° 0,5 mm 4 m/s 745 mmHg 71%
    17:00 +16°C° 0,3 mm 3 m/s 745 mmHg 75%
    18:00 +14°C° 0,3 mm 3 m/s 745 mmHg 79%
    19:00 +14°C° 0,3 mm 2 m/s 745 mmHg 84%
    20:00 +13°C° 0 mm 2 m/s 746 mmHg 86%
    21:00 +12°C° 0 mm 2 m/s 746 mmHg 89%
    22:00 +9°C° 0 mm 2 m/s 746 mmHg 91%
    23:00 +9°C° 0 mm 2 m/s 746 mmHg 91%

    24 Juin, Dimanche

    Heure Température Précipitation Vent Pression Humidité
    00:00 +9°C° 0 mm 2 m/s 746 mmHg 91%
    01:00 +8°C° 0 mm 2 m/s 746 mmHg 91%
    02:00 +8°C° 0 mm 2 m/s 746 mmHg 91%
    03:00 +8°C° 0 mm 2 m/s 746 mmHg 91%
    04:00 +8°C° 0 mm 2 m/s 746 mmHg 91%
    05:00 +10°C° 0,1 mm 2 m/s 746 mmHg 87%
    06:00 +13°C° 0,1 mm 2 m/s 747 mmHg 83%
    07:00 +15°C° 0,1 mm 2 m/s 747 mmHg 78%
    08:00 +15°C° 0,4 mm 2 m/s 747 mmHg 75%
    09:00 +16°C° 0,4 mm 3 m/s 747 mmHg 72%
    10:00 +17°C° 0,4 mm 3 m/s 747 mmHg 69%
    11:00 +18°C° 0,2 mm 3 m/s 747 mmHg 64%
    12:00 +18°C° 0,2 mm 3 m/s 747 mmHg 59%
    13:00 +19°C° 0,2 mm 4 m/s 747 mmHg 54%
    14:00 +19°C° 0,1 mm 4 m/s 748 mmHg 54%
    15:00 +19°C° 0,1 mm 4 m/s 748 mmHg 54%
    16:00 +19°C° 0,1 mm 4 m/s 748 mmHg 54%
    17:00 +18°C° 0 mm 3 m/s 748 mmHg 59%
    18:00 +17°C° 0 mm 2 m/s 748 mmHg 64%
    19:00 +16°C° 0 mm 2 m/s 748 mmHg 70%
    20:00 +15°C° 0 mm 1 m/s 749 mmHg 74%
    21:00 +13°C° 0 mm 1 m/s 749 mmHg 79%
    22:00 +12°C° 0 mm 1 m/s 749 mmHg 83%
    23:00 +12°C° 0 mm 1 m/s 749 mmHg 84%

    25 Juin, Lundi

    Heure Température Précipitation Vent Pression Humidité
    00:00 +11°C° 0 mm 1 m/s 749 mmHg 85%
    01:00 +11°C° 0 mm 1 m/s 750 mmHg 86%
    02:00 +10°C° 0 mm 2 m/s 750 mmHg 87%
    03:00 +10°C° 0 mm 2 m/s 750 mmHg 88%
    04:00 +10°C° 0 mm 2 m/s 750 mmHg 89%
    05:00 +13°C° 0 mm 2 m/s 750 mmHg 84%
    06:00 +15°C° 0 mm 2 m/s 751 mmHg 78%
    07:00 +16°C° 0 mm 2 m/s 751 mmHg 73%
    08:00 +17°C° 0,1 mm 2 m/s 751 mmHg 67%
    09:00 +19°C° 0,1 mm 3 m/s 751 mmHg 61%
    10:00 +20°C° 0,1 mm 3 m/s 751 mmHg 55%
    11:00 +20°C° 0,1 mm 3 m/s 751 mmHg 53%
    12:00 +20°C° 0,1 mm 3 m/s 751 mmHg 51%
    13:00 +21°C° 0,1 mm 4 m/s 751 mmHg 48%
    14:00 +21°C° 0 mm 4 m/s 751 mmHg 48%
    15:00 +21°C° 0 mm 4 m/s 751 mmHg 47%
    16:00 +21°C° 0 mm 4 m/s 751 mmHg 47%
    17:00 +20°C° 0 mm 3 m/s 751 mmHg 53%
    18:00 +18°C° 0 mm 3 m/s 751 mmHg 60%
    19:00 +17°C° 0 mm 2 m/s 751 mmHg 66%
    20:00 +16°C° 0 mm 2 m/s 752 mmHg 72%
    21:00 +14°C° 0 mm 1 m/s 752 mmHg 77%
    22:00 +12°C° 0 mm 1 m/s 752 mmHg 83%
    23:00 +12°C° 0 mm 1 m/s 752 mmHg 81%

    26 Juin, Mardi

    Heure Température Précipitation Vent Pression Humidité
    00:00 +12°C° 0 mm 1 m/s 752 mmHg 79%
    01:00 +12°C° 0 mm 1 m/s 752 mmHg 78%
    02:00 +12°C° 0,3 mm 1 m/s 752 mmHg 80%
    03:00 +12°C° 0,3 mm 1 m/s 752 mmHg 82%
    04:00 +12°C° 0,3 mm 1 m/s 752 mmHg 84%
    05:00 +13°C° 0,7 mm 1 m/s 752 mmHg 86%
    06:00 +13°C° 0,7 mm 1 m/s 752 mmHg 89%
    07:00 +13°C° 0,7 mm 2 m/s 752 mmHg 91%
    08:00 +14°C° 0,4 mm 2 m/s 752 mmHg 88%
    09:00 +15°C° 0,4 mm 2 m/s 752 mmHg 85%
    10:00 +16°C° 0,4 mm 2 m/s 752 mmHg 82%
    11:00 +17°C° 0,6 mm 2 m/s 752 mmHg 79%
    12:00 +18°C° 0,6 mm 2 m/s 752 mmHg 76%
    13:00 +19°C° 0,6 mm 2 m/s 751 mmHg 73%
    14:00 +19°C° 1,2 mm 2 m/s 751 mmHg 73%
    15:00 +19°C° 1,2 mm 2 m/s 751 mmHg 73%
    16:00 +20°C° 1,2 mm 2 m/s 751 mmHg 73%
    17:00 +19°C° 0,7 mm 2 m/s 751 mmHg 77%
    18:00 +18°C° 0,7 mm 2 m/s 751 mmHg 81%
    19:00 +18°C° 0,7 mm 1 m/s 751 mmHg 86%
    20:00 +16°C° 0,1 mm 1 m/s 752 mmHg 88%
    21:00 +15°C° 0,1 mm 1 m/s 752 mmHg 90%
    22:00 +14°C° 0,1 mm 1 m/s 752 mmHg 92%
    23:00 +13°C° 0 mm 1 m/s 752 mmHg 93%
    Voir plus